VR2HK-13 Weather Reports


Display with metric or nautical units.
time (UTC)temp
F
wind
direction
speed
MPH
gust
MPH
rain 1hr
in
rain 24hr
in
rain mn
in
humidity
%
barometer
mb
20190820045457 88 70 5.0 11.0 0.00 0.00 0.00 75 1004.6
20190820045415 88 51 3.0 9.0 0.00 0.00 0.00 74 1004.7
20190820044957 87 278 2.0 9.0 0.00 0.00 0.00 76 1004.6
20190820044915 87 232 2.0 9.0 0.00 0.00 0.00 76 1004.5
20190820044415 89 337 2.0 4.0 0.00 0.00 0.00 75 1004.6
20190820043957 89 304 1.0 4.0 0.00 0.00 0.00 74 1004.6
20190820043700 89 230 2.0 5.0 0.00 0.00 0.00 76 1004.7
20190820043456 89 126 2.0 5.0 0.00 0.00 0.00 76 1004.7
20190820043415 89 230 2.0 5.0 0.00 0.00 0.00 76 1004.7
20190820042957 88 91 2.0 6.0 0.00 0.00 0.00 75 1004.7
20190820042915 88 146 2.0 6.0 0.00 0.00 0.00 76 1004.7
20190820042457 87 360 1.0 6.0 0.00 0.00 0.00 76 1004.8
20190820042415 87 104 2.0 6.0 0.00 0.00 0.00 77 1004.9
20190820041957 88 220 2.0 6.0 0.00 0.00 0.00 75 1005.0
20190820041915 88 247 1.0 8.0 0.00 0.00 0.00 75 1004.9
20190820041456 88 251 2.0 8.0 0.00 0.00 0.00 78 1005.1
20190820041415 88 264 2.0 8.0 0.00 0.00 0.00 76 1005.0
20190820040956 89 322 2.0 8.0 0.00 0.00 0.00 73 1005.2
20190820040915 89 92 2.0 8.0 0.00 0.00 0.00 73 1005.2
20190820040457 89 25 1.0 5.0 0.00 0.00 0.00 76 1005.1
20190820040415 89 78 1.0 5.0 0.00 0.00 0.00 76 1005.1
20190820035956 88 333 1.0 6.0 0.00 0.00 0.00 77 1005.2
20190820035915 88 232 1.0 6.0 0.00 0.00 0.00 78 1005.2
20190820035456 88 238 3.0 9.0 0.00 0.00 0.00 77 1005.2
20190820035415 88 303 3.0 9.0 0.00 0.00 0.00 78 1005.3
20190820034956 89 351 2.0 9.0 0.00 0.00 0.00 76 1005.3
20190820034915 89 329 2.0 9.0 0.00 0.00 0.00 75 1005.3
20190820034456 89 243 2.0 10.0 0.00 0.00 0.00 79 1005.3
20190820034415 89 310 3.0 10.0 0.00 0.00 0.00 78 1005.3
20190820033956 88 328 3.0 10.0 0.00 0.00 0.00 76 1005.3
20190820033915 88 13 2.0 10.0 0.00 0.00 0.00 76 1005.4
20190820033456 90 237 3.0 5.0 0.00 0.00 0.00 75 1005.3
20190820033415 90 209 2.0 5.0 0.00 0.00 0.00 77 1005.3
20190820032956 89 176 1.0 4.0 0.00 0.00 0.00 78 1005.3
20190820032915 89 4 1.0 4.0 0.00 0.00 0.00 77 1005.3
20190820032456 89 290 2.0 5.0 0.00 0.00 0.00 80 1005.3
20190820032414 88 320 2.0 5.0 0.00 0.00 0.00 81 1005.3
20190820031956 87 98 2.0 5.0 0.00 0.00 0.00 81 1005.3
20190820031915 87 242 2.0 5.0 0.00 0.00 0.00 80 1005.4
20190820031456 86 128 1.0 6.0 0.00 0.00 0.00 81 1005.4
20190820031415 86 77 1.0 6.0 0.00 0.00 0.00 81 1005.3
20190820030956 86 54 3.0 6.0 0.00 0.00 0.00 83 1005.4
20190820030914 85 317 3.0 6.0 0.00 0.00 0.00 82 1005.4
20190820030456 85 281 3.0 5.0 0.00 0.00 0.00 82 1005.5
20190820030414 85 38 3.0 5.0 0.00 0.00 0.00 83 1005.7
20190820025956 84 360 2.0 5.0 0.00 0.00 0.00 83 1005.7
20190820025915 85 9 2.0 5.0 0.00 0.00 0.00 83 1005.7
20190820025456 84 31 2.0 5.0 0.00 0.00 0.00 83 1005.8
20190820025414 84 116 2.0 5.0 0.00 0.00 0.00 85 1005.7
20190820024956 85 251 1.0 4.0 0.00 0.00 0.00 84 1005.7
20190820024915 85 291 1.0 3.0 0.00 0.00 0.00 85 1005.7
20190820024456 85 344 1.0 3.0 0.00 0.00 0.00 85 1005.7
20190820024415 84 256 1.0 3.0 0.00 0.00 0.00 85 1005.7
20190820023956 84 276 1.0 3.0 0.00 0.00 0.00 86 1005.7
20190820023914 84 309 1.0 3.0 0.00 0.00 0.00 86 1005.7
20190820023456 84 15 1.0 3.0 0.00 0.00 0.00 85 1005.7
20190820023414 84 356 1.0 3.0 0.00 0.00 0.00 86 1005.6
20190820022956 84 253 1.0 3.0 0.00 0.00 0.00 87 1005.8
20190820022914 84 287 0.0 3.0 0.00 0.00 0.00 86 1005.7
20190820022456 84 320 1.0 3.0 0.00 0.00 0.00 87 1005.8
20190820021956 84 237 1.0 7.0 0.00 0.00 0.00 85 1005.7
20190820021914 84 40 1.0 7.0 0.00 0.00 0.00 85 1005.7
20190820021456 83 95 1.0 7.0 0.00 0.00 0.00 86 1005.7
20190820021414 83 317 1.0 7.0 0.00 0.00 0.00 85 1005.6
20190820020956 83 360 2.0 7.0 0.00 0.00 0.00 85 1005.6
20190820020914 83 182 2.0 7.0 0.00 0.00 0.00 86 1005.7
20190820020456 83 346 1.0 6.0 0.00 0.00 0.00 87 1005.6
20190820020414 83 334 1.0 6.0 0.00 0.00 0.00 86 1005.7
20190820015914 83 122 2.0 6.0 0.00 0.00 0.00 84 1005.8
20190820015456 84 258 1.0 3.0 0.00 0.00 0.00 85 1005.8
20190820015415 84 293 1.0 3.0 0.00 0.00 0.00 86 1005.8
20190820014956 84 210 1.0 3.0 0.00 0.00 0.00 86 1005.8
20190820014914 84 234 1.0 3.0 0.00 0.00 0.00 85 1005.8
20190820014456 84 10 1.0 5.0 0.00 0.00 0.00 84 1005.8
20190820014414 84 54 1.0 5.0 0.00 0.00 0.00 84 1005.8
20190820013956 84 359 2.0 7.0 0.00 0.00 0.00 86 1005.8
20190820013915 84 350 3.0 7.0 0.00 0.00 0.00 85 1005.7
20190820013456 84 236 1.0 7.0 0.00 0.00 0.00 86 1005.7
20190820013414 84 243 2.0 7.0 0.00 0.00 0.00 85 1005.7
20190820012956 84 283 1.0 6.0 0.00 0.00 0.00 85 1005.7
20190820012914 84 199 2.0 6.0 0.00 0.00 0.00 85 1005.6
20190820012456 84 360 2.0 6.0 0.00 0.00 0.00 84 1005.7
20190820012414 84 6 2.0 6.0 0.00 0.00 0.00 83 1005.7
20190820011956 85 45 2.0 4.0 0.00 0.00 0.00 82 1005.7
20190820011914 85 46 1.0 4.0 0.00 0.00 0.00 83 1005.6
20190820011456 85 317 1.0 6.0 0.00 0.00 0.00 84 1005.4
20190820011414 85 235 1.0 6.0 0.00 0.00 0.00 84 1005.4
20190820010956 84 240 2.0 6.0 0.00 0.00 0.00 83 1005.3
20190820010914 84 169 2.0 6.0 0.00 0.00 0.00 83 1005.4
20190820010456 84 360 2.0 5.0 0.00 0.00 0.00 85 1005.4
20190820010414 85 310 3.0 6.0 0.00 0.00 0.00 84 1005.3
20190820005956 84 327 1.0 8.0 0.00 0.00 0.00 84 1005.3
20190820005914 84 186 1.0 8.0 0.00 0.00 0.00 84 1005.3
20190820005414 84 116 3.0 8.0 0.00 0.00 0.00 84 1005.3
20190820004956 84 49 2.0 8.0 0.00 0.00 0.00 85 1005.3
20190820004914 84 353 2.0 8.0 0.00 0.00 0.00 85 1005.3
20190820004456 83 104 2.0 7.0 0.00 0.00 0.00 87 1005.4
20190820004414 83 290 1.0 7.0 0.00 0.00 0.00 88 1005.4
20190820003956 83 45 2.0 7.0 0.00 0.00 0.00 89 1005.3
20190820003914 83 313 3.0 8.0 0.00 0.00 0.00 89 1005.3
20190820003456 83 17 2.0 8.0 0.00 0.00 0.00 88 1005.4
20190820003414 83 93 1.0 8.0 0.00 0.00 0.00 88 1005.3
20190820002956 83 143 3.0 8.0 0.00 0.00 0.00 87 1005.2
20190820002914 83 70 1.0 8.0 0.00 0.00 0.00 88 1005.2
20190820002455 83 321 1.0 5.0 0.00 0.00 0.00 88 1005.1
20190820002414 83 51 1.0 5.0 0.00 0.00 0.00 89 1005.1
20190820001957 83 353 1.0 5.0 0.00 0.00 0.00 88 1005.1
20190820001914 83 331 2.0 5.0 0.00 0.00 0.00 88 1005.1
20190820001456 84 274 1.0 3.0 0.00 0.00 0.00 88 1005.1
20190820001414 84 300 2.0 3.0 0.00 0.00 0.00 88 1005.0
20190820000956 84 40 2.0 5.0 0.00 0.00 0.00 87 1004.9
20190820000914 84 188 2.0 5.0 0.00 0.00 0.00 87 1004.9
20190820000456 84 34 2.0 5.0 0.00 0.00 0.00 86 1004.9
20190820000414 85 71 2.0 5.0 0.00 0.00 0.00 85 1004.9
20190819235955 84 220 1.0 7.0 0.00 0.00 0.00 88 1004.8
20190819235914 84 238 1.0 7.0 0.00 0.00 0.00 88 1004.8
20190819235455 83 7 1.0 7.0 0.00 0.00 0.00 88 1004.8
20190819235414 83 341 2.0 7.0 0.00 0.00 0.00 88 1004.7
20190819234956 83 360 1.0 3.0 0.00 0.00 0.00 88 1004.7
20190819234914 83 50 1.0 3.0 0.00 0.00 0.00 88 1004.7
20190819234455 83 46 0.0 4.0 0.00 0.00 0.00 89 1004.7
20190819234414 83 195 1.0 4.0 0.00 0.00 0.00 88 1004.7
20190819233955 83 303 1.0 4.0 0.00 0.00 0.00 89 1004.7
20190819233914 83 279 1.0 4.0 0.00 0.00 0.00 90 1004.7
20190819233455 82 24 1.0 5.0 0.00 0.00 0.00 90 1004.7
20190819233413 82 336 1.0 5.0 0.00 0.00 0.00 91 1004.7
20190819232955 82 32 1.0 5.0 0.00 0.00 0.00 90 1004.8
20190819232913 82 50 1.0 5.0 0.00 0.00 0.00 90 1004.8
20190819232455 82 38 2.0 4.0 0.00 0.00 0.00 91 1004.7
20190819232414 82 51 2.0 4.0 0.00 0.00 0.00 92 1004.7
20190819231955 81 128 1.0 4.0 0.00 0.00 0.00 92 1004.6
20190819231951 81 109 1.0 4.0 0.00 0.00 0.00 92 1004.6
20190819231913 81 109 1.0 4.0 0.00 0.00 0.00 92 1004.6
20190819231455 81 10 1.0 2.0 0.00 0.00 0.00 93 1004.6
20190819231414 81 17 1.0 2.0 0.00 0.00 0.00 93 1004.6
20190819230955 80 59 1.0 2.0 0.00 0.00 0.00 94 1004.4
20190819230913 80 360 1.0 2.0 0.00 0.00 0.00 94 1004.5
20190819230455 80 69 0.0 2.0 0.00 0.00 0.00 96 1004.4
20190819230413 80 36 0.0 2.0 0.00 0.00 0.00 96 1004.4
20190819225955 80 320 0.0 2.0 0.00 0.00 0.00 96 1004.4
20190819225913 80 307 0.0 2.0 0.00 0.00 0.00 96 1004.4
20190819225455 80 186 1.0 2.0 0.00 0.00 0.00 96 1004.4
20190819225414 80 193 1.0 2.0 0.00 0.00 0.00 96 1004.4
20190819224955 79 208 1.0 2.0 0.00 0.00 0.00 96 1004.4
20190819224913 79 209 1.0 2.0 0.00 0.00 0.00 96 1004.4
20190819224455 79 230 1.0 2.0 0.00 0.00 0.00 96 1004.4
20190819224413 79 202 1.0 2.0 0.00 0.00 0.00 96 1004.4
20190819223955 79 186 0.0 2.0 0.00 0.00 0.00 97 1004.4
20190819223913 79 205 0.0 2.0 0.00 0.00 0.00 97 1004.4
20190819223455 79 220 1.0 2.0 0.00 0.00 0.00 97 1004.4
20190819223413 79 231 1.0 2.0 0.00 0.00 0.00 97 1004.5
20190819222955 79 236 1.0 2.0 0.00 0.00 0.00 97 1004.4
20190819222913 79 200 1.0 2.0 0.00 0.00 0.00 96 1004.4
20190819222455 79 164 1.0 2.0 0.00 0.00 0.00 96 1004.3
20190819222413 79 238 1.0 2.0 0.00 0.00 0.00 96 1004.4
20190819221955 80 270 1.0 2.0 0.00 0.00 0.00 96 1004.3
20190819221913 80 204 1.0 2.0 0.00 0.00 0.00 96 1004.3
20190819221456 80 269 0.0 2.0 0.00 0.00 0.00 96 1004.4
20190819220955 80 235 1.0 2.0 0.00 0.00 0.00 96 1004.3
20190819220913 80 219 1.0 2.0 0.00 0.00 0.00 95 1004.3
20190819220455 80 335 0.0 2.0 0.00 0.00 0.00 95 1004.3
20190819220413 80 97 0.0 2.0 0.00 0.00 0.00 95 1004.3
20190819215955 79 66 1.0 2.0 0.00 0.00 0.00 96 1004.1
20190819215913 79 108 1.0 2.0 0.00 0.00 0.00 96 1004.2
20190819215455 79 47 0.0 1.0 0.00 0.00 0.00 96 1004.1
20190819215413 79 129 0.0 1.0 0.00 0.00 0.00 96 1004.1
20190819214955 79 60 1.0 1.0 0.00 0.00 0.00 97 1004.1
20190819214913 79 44 1.0 1.0 0.00 0.00 0.00 97 1004.1
20190819214455 79 45 1.0 1.0 0.00 0.00 0.00 98 1004.2
20190819214413 79 49 0.0 1.0 0.00 0.00 0.00 98 1004.2
20190819213955 79 351 0.0 1.0 0.00 0.00 0.00 98 1004.2
20190819213913 79 12 0.0 1.0 0.00 0.00 0.00 98 1004.2
20190819213455 79 262 0.0 2.0 0.00 0.00 0.00 98 1004.2
20190819213413 79 278 0.0 2.0 0.00 0.00 0.00 98 1004.2
20190819212955 79 190 1.0 2.0 0.00 0.00 0.00 98 1004.2
20190819212455 79 206 1.0 2.0 0.00 0.00 0.00 98 1004.1
20190819212413 79 195 1.0 2.0 0.00 0.00 0.00 97 1004.1
20190819211955 79 209 1.0 1.0 0.00 0.00 0.00 98 1004.2
20190819211913 79 190 1.0 1.0 0.00 0.00 0.00 98 1004.2
20190819211455 79 219 0.0 3.0 0.00 0.00 0.00 97 1004.2
20190819211413 79 239 0.0 3.0 0.00 0.00 0.00 97 1004.2
20190819210955 79 197 0.0 3.0 0.00 0.00 0.00 97 1004.3
20190819210913 79 190 1.0 3.0 0.00 0.00 0.00 97 1004.2
20190819210455 79 199 1.0 2.0 0.00 0.00 0.00 97 1004.4
20190819210413 79 193 1.0 2.0 0.00 0.00 0.00 97 1004.4
20190819205955 79 230 1.0 2.0 0.00 0.00 0.00 97 1004.5
20190819205913 79 227 0.0 2.0 0.00 0.00 0.00 97 1004.5
20190819205455 79 230 1.0 2.0 0.00 0.00 0.00 97 1004.5
20190819205413 79 198 1.0 2.0 0.00 0.00 0.00 97 1004.5
20190819204913 79 243 1.0 1.0 0.00 0.00 0.00 98 1004.3
20190819204454 79 302 0.0 1.0 0.00 0.00 0.00 97 1004.2
20190819204413 79 348 0.0 1.0 0.00 0.00 0.00 97 1004.2
20190819203955 79 110 0.0 1.0 0.00 0.00 0.00 98 1004.2
20190819203913 79 24 0.0 1.0 0.00 0.00 0.00 98 1004.1
20190819203413 79 178 0.0 2.0 0.00 0.00 0.00 98 1004.1
20190819202954 79 244 1.0 2.0 0.00 0.00 0.00 98 1004.1
20190819202913 79 222 1.0 2.0 0.00 0.00 0.00 98 1004.1
20190819202454 79 217 1.0 2.0 0.00 0.00 0.00 98 1004.0
20190819201954 79 216 1.0 2.0 0.00 0.00 0.00 98 1003.9
20190819201913 79 206 1.0 2.0 0.00 0.00 0.00 98 1003.9
20190819201454 79 203 1.0 2.0 0.00 0.00 0.00 98 1003.9
20190819201413 79 206 1.0 2.0 0.00 0.00 0.00 98 1003.9
20190819200954 79 280 1.0 2.0 0.00 0.00 0.00 98 1003.9
20190819200913 79 241 1.0 2.0 0.00 0.00 0.00 98 1004.0
20190819200454 79 236 0.0 2.0 0.00 0.00 0.00 98 1004.0
20190819200413 79 258 0.0 2.0 0.00 0.00 0.00 98 1004.1
20190819195954 79 185 1.0 3.0 0.00 0.00 0.00 97 1004.1
20190819195912 79 187 1.0 3.0 0.00 0.00 0.00 97 1004.1
20190819195454 79 169 2.0 3.0 0.00 0.00 0.00 98 1004.0
20190819195412 79 216 2.0 3.0 0.00 0.00 0.00 98 1004.0
20190819194954 79 237 1.0 3.0 0.00 0.00 0.00 97 1004.0
20190819194912 79 214 1.0 3.0 0.00 0.00 0.00 97 1004.0
20190819194454 79 207 1.0 3.0 0.00 0.00 0.00 97 1004.0
20190819194412 79 235 1.0 3.0 0.00 0.00 0.00 97 1003.9
20190819193954 80 221 1.0 2.0 0.00 0.00 0.00 97 1003.9
20190819193912 80 222 1.0 2.0 0.00 0.00 0.00 97 1003.9
20190819193454 80 200 1.0 1.0 0.00 0.00 0.00 97 1003.9
20190819193412 80 269 1.0 1.0 0.00 0.00 0.00 97 1003.9
20190819192954 79 325 0.0 1.0 0.00 0.00 0.00 97 1003.9
20190819192912 79 223 0.0 1.0 0.00 0.00 0.00 97 1003.9
20190819192455 79 249 0.0 1.0 0.00 0.00 0.00 97 1003.8
20190819191954 79 277 0.0 1.0 0.00 0.00 0.00 97 1003.7
20190819191912 79 249 0.0 2.0 0.00 0.00 0.00 97 1003.7
20190819191454 79 283 0.0 3.0 0.00 0.00 0.00 97 1003.7
20190819191412 79 291 0.0 3.0 0.00 0.00 0.00 97 1003.7
20190819190954 79 252 1.0 3.0 0.00 0.00 0.00 97 1003.7
20190819190912 79 207 1.0 3.0 0.00 0.00 0.00 97 1003.6
20190819190454 79 215 1.0 2.0 0.00 0.00 0.00 97 1003.6
20190819190413 79 184 1.0 2.0 0.00 0.00 0.00 97 1003.6
20190819185954 79 175 1.0 2.0 0.00 0.00 0.00 97 1003.6
20190819185912 79 219 1.0 2.0 0.00 0.00 0.00 97 1003.6
20190819185454 80 185 1.0 1.0 0.00 0.00 0.00 97 1003.5
20190819185412 80 257 1.0 1.0 0.00 0.00 0.00 97 1003.5
20190819184954 80 244 1.0 2.0 0.00 0.00 0.00 97 1003.5
20190819184912 80 201 0.0 2.0 0.00 0.00 0.00 97 1003.6
20190819184454 80 239 1.0 2.0 0.00 0.00 0.00 97 1003.5
20190819184412 80 240 1.0 2.0 0.00 0.00 0.00 97 1003.6
20190819183954 80 259 1.0 2.0 0.00 0.00 0.00 97 1003.6
20190819183912 80 256 1.0 2.0 0.00 0.00 0.00 97 1003.6
20190819183454 80 220 1.0 2.0 0.00 0.00 0.00 97 1003.6
20190819183412 79 264 1.0 1.0 0.00 0.00 0.00 97 1003.6
20190819182954 80 235 1.0 2.0 0.00 0.00 0.00 97 1003.6
20190819182912 80 228 0.0 2.0 0.00 0.00 0.00 97 1003.6
20190819182543 79 360 0.0 2.0 0.00 0.00 0.00 97 1003.7
20190819182454 79 360 0.0 2.0 0.00 0.00 0.00 97 1003.7
20190819182412 79 7 0.0 2.0 0.00 0.00 0.00 97 1003.6
20190819181954 79 348 0.0 2.0 0.00 0.00 0.00 97 1003.7
20190819181912 79 303 0.0 2.0 0.00 0.00 0.00 97 1003.7
20190819181454 79 208 1.0 2.0 0.00 0.00 0.00 97 1003.8
20190819181412 79 200 1.0 2.0 0.00 0.00 0.00 97 1003.8
20190819180954 79 273 0.0 1.0 0.00 0.00 0.00 97 1003.8
20190819180912 79 241 0.0 1.0 0.00 0.00 0.00 97 1003.8
20190819180454 79 256 0.0 1.0 0.00 0.00 0.00 97 1003.8
20190819180412 79 245 1.0 1.0 0.00 0.00 0.00 97 1003.8
20190819175954 79 240 0.0 1.0 0.00 0.00 0.00 97 1003.9
20190819175454 79 269 0.0 1.0 0.00 0.00 0.00 97 1004.0
20190819175412 79 273 0.0 2.0 0.00 0.00 0.00 97 1004.0
20190819174954 79 240 0.0 2.0 0.00 0.00 0.00 97 1004.0
20190819174912 79 266 0.0 2.0 0.00 0.00 0.00 97 1004.0
20190819174454 79 215 1.0 2.0 0.00 0.00 0.00 97 1004.2
20190819174412 79 220 1.0 2.0 0.00 0.00 0.00 97 1004.2
20190819173954 80 175 1.0 2.0 0.00 0.00 0.00 97 1004.2
20190819173912 80 215 1.0 1.0 0.00 0.00 0.00 97 1004.2
20190819173454 80 227 0.0 1.0 0.00 0.00 0.00 97 1004.2
20190819173412 80 322 0.0 1.0 0.00 0.00 0.00 97 1004.2
20190819172954 80 29 0.0 1.0 0.00 0.00 0.00 97 1004.2
20190819172912 80 49 0.0 1.0 0.00 0.00 0.00 97 1004.3
20190819172454 79 34 0.0 1.0 0.00 0.00 0.00 97 1004.2
20190819172413 79 42 0.0 1.0 0.00 0.00 0.00 97 1004.2
20190819171954 79 12 0.0 1.0 0.00 0.00 0.00 97 1004.1
20190819171912 79 360 0.0 1.0 0.00 0.00 0.00 97 1004.2
20190819171454 79 220 0.0 2.0 0.00 0.00 0.00 97 1004.1
20190819171412 79 229 1.0 2.0 0.00 0.00 0.00 97 1004.1
20190819170954 79 158 1.0 2.0 0.00 0.00 0.00 97 1004.1
20190819170912 79 202 1.0 2.0 0.00 0.00 0.00 97 1004.1
20190819170453 79 188 1.0 2.0 0.00 0.00 0.00 97 1004.2
20190819170412 79 191 1.0 2.0 0.00 0.00 0.00 97 1004.3
20190819165953 79 239 1.0 2.0 0.00 0.00 0.00 96 1004.3
20190819165912 79 195 1.0 2.0 0.00 0.00 0.00 96 1004.2
20190819165453 80 219 1.0 3.0 0.00 0.00 0.00 96 1004.3
20190819165412 80 189 1.0 3.0 0.00 0.00 0.00 96 1004.3
20190819164953 80 210 1.0 3.0 0.00 0.00 0.00 95 1004.4
20190819164912 80 209 1.0 3.0 0.00 0.00 0.00 95 1004.5
20190819164412 81 198 1.0 3.0 0.00 0.00 0.00 94 1004.5
20190819163912 81 103 1.0 3.0 0.00 0.00 0.00 94 1004.6
20190819163411 81 54 1.0 4.0 0.00 0.00 0.00 94 1004.6
20190819162953 81 73 2.0 4.0 0.00 0.00 0.00 94 1004.8
20190819162453 81 24 1.0 2.0 0.00 0.00 0.00 95 1005.0
20190819162412 81 114 1.0 2.0 0.00 0.00 0.00 95 1004.9
20190819161953 81 58 1.0 2.0 0.00 0.00 0.00 95 1005.0
20190819161911 81 72 1.0 2.0 0.00 0.00 0.00 95 1005.0
20190819161453 80 79 1.0 1.0 0.00 0.00 0.00 96 1005.0
20190819161411 80 87 1.0 1.0 0.00 0.00 0.00 96 1005.0
20190819160953 80 74 1.0 1.0 0.00 0.00 0.00 96 1005.2
20190819160912 80 95 1.0 1.0 0.00 0.00 0.00 96 1005.2
20190819160453 80 58 0.0 2.0 0.00 0.00 0.00 96 1005.3
20190819160412 80 118 0.0 2.0 0.00 0.00 0.00 96 1005.3
20190819155953 80 245 1.0 2.0 0.00 0.00 0.00 96 1005.3
20190819155911 80 233 1.0 2.0 0.00 0.00 0.00 96 1005.4
20190819155453 80 239 1.0 3.0 0.00 0.00 0.00 95 1005.5
20190819155411 80 209 1.0 3.0 0.00 0.00 0.00 95 1005.4
20190819154953 80 291 1.0 3.0 0.00 0.00 0.00 95 1005.4
20190819154911 80 198 1.0 3.0 0.00 0.00 0.00 95 1005.4
20190819154453 81 230 1.0 2.0 0.00 0.00 0.00 95 1005.5
20190819154411 81 242 1.0 2.0 0.00 0.00 0.00 95 1005.5
20190819153953 81 214 1.0 2.0 0.00 0.00 0.00 95 1005.5
20190819153911 81 216 1.0 2.0 0.00 0.00 0.00 95 1005.5
20190819153453 81 295 1.0 2.0 0.00 0.00 0.00 95 1005.5
20190819153411 81 237 1.0 2.0 0.00 0.00 0.00 95 1005.5
20190819152953 81 342 0.0 1.0 0.00 0.00 0.00 95 1005.5
20190819152911 81 337 0.0 1.0 0.00 0.00 0.00 95 1005.5
20190819152453 80 13 1.0 1.0 0.00 0.00 0.00 95 1005.5
20190819152411 80 97 0.0 1.0 0.00 0.00 0.00 95 1005.4
20190819151953 81 33 0.0 2.0 0.00 0.00 0.00 95 1005.4
20190819151911 81 58 0.0 2.0 0.00 0.00 0.00 95 1005.5
20190819151453 80 270 1.0 4.0 0.00 0.00 0.00 95 1005.4
20190819150953 81 274 2.0 4.0 0.00 0.00 0.00 94 1005.2
20190819150911 81 219 2.0 5.0 0.00 0.00 0.00 94 1005.3
20190819150453 81 248 1.0 5.0 0.00 0.00 0.00 94 1005.3
20190819150411 81 298 0.0 5.0 0.00 0.00 0.00 94 1005.3
20190819145953 81 200 2.0 5.0 0.00 0.00 0.00 93 1005.2
20190819145911 81 200 2.0 3.0 0.00 0.00 0.00 94 1005.2
20190819145453 81 254 1.0 2.0 0.00 0.00 0.00 94 1005.2
20190819145411 81 208 1.0 2.0 0.00 0.00 0.00 94 1005.2
20190819144953 81 321 0.0 1.0 0.00 0.00 0.00 94 1005.3
20190819144912 81 205 0.0 1.0 0.00 0.00 0.00 94 1005.3
20190819144442 81 58 0.0 6.0 0.00 0.00 0.00 94 1005.3
20190819144411 81 58 0.0 6.0 0.00 0.00 0.00 94 1005.3
20190819143953 81 45 1.0 6.0 0.00 0.00 0.00 94 1005.2
20190819143911 81 62 1.0 6.0 0.00 0.00 0.00 94 1005.2
20190819143453 81 21 1.0 4.0 0.00 0.00 0.00 94 1005.0
20190819143411 81 12 1.0 4.0 0.00 0.00 0.00 94 1005.0
20190819142953 81 316 1.0 4.0 0.00 0.00 0.00 94 1004.9
20190819142911 81 360 1.0 4.0 0.00 0.00 0.00 94 1004.9
20190819142453 81 285 1.0 3.0 0.00 0.00 0.00 94 1004.9
20190819142411 82 328 1.0 3.0 0.00 0.00 0.00 94 1004.9
20190819141953 82 245 1.0 2.0 0.00 0.00 0.00 93 1004.8
20190819141911 82 309 1.0 2.0 0.00 0.00 0.00 93 1004.7
20190819141453 82 283 1.0 1.0 0.00 0.00 0.00 93 1004.7
20190819141411 82 323 1.0 1.0 0.00 0.00 0.00 93 1004.7
20190819140953 82 331 0.0 4.0 0.00 0.00 0.00 93 1004.8
20190819140453 82 80 0.0 4.0 0.00 0.00 0.00 93 1005.0
20190819140411 82 57 0.0 4.0 0.00 0.00 0.00 93 1005.1
20190819135953 82 22 1.0 4.0 0.00 0.00 0.00 93 1005.2
20190819135911 82 43 1.0 3.0 0.00 0.00 0.00 93 1005.1
20190819135453 82 37 2.0 3.0 0.00 0.00 0.00 93 1005.2
20190819135411 82 28 2.0 3.0 0.00 0.00 0.00 93 1005.2
20190819134953 82 66 1.0 3.0 0.00 0.00 0.00 94 1005.3
20190819134911 81 12 1.0 2.0 0.00 0.00 0.00 94 1005.3
20190819134453 81 56 0.0 2.0 0.00 0.00 0.00 95 1005.0
20190819134411 81 317 0.0 2.0 0.00 0.00 0.00 95 1005.0
20190819134047 81 255 0.0 2.0 0.00 0.00 0.00 95 1004.9
20190819133953 81 255 0.0 2.0 0.00 0.00 0.00 95 1004.9
20190819133911 81 280 0.0 2.0 0.00 0.00 0.00 95 1004.8
20190819133453 81 237 0.0 1.0 0.00 0.00 0.00 95 1004.7
20190819132953 81 259 1.0 2.0 0.00 0.00 0.00 95 1004.6
20190819132911 81 301 1.0 2.0 0.00 0.00 0.00 95 1004.6
20190819132453 81 270 1.0 2.0 0.00 0.00 0.00 94 1004.6
20190819131952 81 249 1.0 2.0 0.00 0.00 0.00 94 1004.6
20190819131453 81 272 1.0 3.0 0.00 0.00 0.00 94 1004.5
20190819130952 81 200 1.0 3.0 0.00 0.00 0.00 93 1004.5
20190819130911 81 171 1.0 3.0 0.00 0.00 0.00 93 1004.5
20190819130452 82 202 2.0 3.0 0.00 0.00 0.00 92 1004.4
20190819130410 82 217 2.0 3.0 0.00 0.00 0.00 92 1004.5
20190819125952 82 225 0.0 3.0 0.00 0.01 0.00 91 1004.5
20190819125912 82 347 0.0 3.0 0.00 0.01 0.00 91 1004.5
20190819125452 82 295 1.0 3.0 0.00 0.01 0.00 91 1004.5
20190819125411 82 358 1.0 3.0 0.00 0.01 0.00 91 1004.5
20190819124453 83 221 0.0 1.0 0.00 0.01 0.00 91 1004.6
20190819124411 83 258 0.0 1.0 0.00 0.01 0.00 91 1004.6
20190819123952 83 238 0.0 1.0 0.00 0.01 0.00 90 1004.8
20190819123911 83 6 1.0 1.0 0.00 0.01 0.00 90 1004.8
20190819123452 83 207 0.0 1.0 0.00 0.01 0.00 90 1004.8
20190819123410 83 16 0.0 1.0 0.00 0.01 0.00 90 1004.8
20190819122910 83 269 0.0 2.0 0.00 0.01 0.00 90 1004.7
20190819122452 83 159 0.0 2.0 0.00 0.01 0.00 90 1004.6
20190819122411 83 159 0.0 2.0 0.00 0.01 0.00 90 1004.6
20190819121952 82 120 0.0 2.0 0.00 0.01 0.00 91 1004.5
20190819121910 82 49 1.0 2.0 0.00 0.01 0.00 91 1004.5
20190819121452 82 250 0.0 1.0 0.00 0.01 0.00 91 1004.4
20190819121410 82 272 0.0 1.0 0.00 0.01 0.00 91 1004.4
20190819120952 82 308 0.0 1.0 0.00 0.01 0.00 91 1004.3
20190819120910 82 218 0.0 1.0 0.00 0.01 0.00 90 1004.3
20190819120452 82 207 0.0 1.0 0.00 0.01 0.00 90 1004.3
20190819120410 82 19 0.0 1.0 0.00 0.01 0.00 90 1004.2
20190819115953 82 231 0.0 1.0 0.00 0.01 0.00 90 1004.1
20190819115910 82 231 0.0 1.0 0.00 0.01 0.00 90 1004.0
20190819115452 82 181 1.0 2.0 0.00 0.01 0.00 90 1003.9
20190819115410 82 213 1.0 2.0 0.00 0.01 0.00 90 1003.8
20190819114952 83 186 1.0 2.0 0.00 0.01 0.00 90 1003.9
20190819114910 83 223 1.0 2.0 0.00 0.01 0.00 90 1004.0
20190819114452 83 245 1.0 2.0 0.00 0.01 0.00 89 1004.0
20190819114410 83 221 1.0 2.0 0.00 0.01 0.00 89 1003.9
20190819113952 83 275 0.0 1.0 0.00 0.01 0.00 89 1004.0
20190819113910 83 252 0.0 1.0 0.00 0.01 0.00 89 1004.0
20190819113452 83 180 0.0 2.0 0.00 0.01 0.00 89 1004.0
20190819113409 83 269 0.0 2.0 0.00 0.01 0.00 89 1003.9
20190819112910 83 265 1.0 2.0 0.00 0.01 0.00 89 1003.8
20190819112452 83 229 1.0 2.0 0.00 0.01 0.00 89 1003.8
20190819112410 83 188 2.0 2.0 0.00 0.01 0.00 89 1003.7
20190819111952 83 208 1.0 2.0 0.00 0.01 0.00 89 1003.7
20190819111909 83 213 1.0 2.0 0.00 0.01 0.00 89 1003.7
20190819111452 83 290 0.0 1.0 0.00 0.01 0.00 89 1003.7
20190819111409 83 15 0.0 1.0 0.00 0.01 0.00 89 1003.7
20190819110952 83 79 0.0 1.0 0.00 0.01 0.00 89 1003.7
20190819110909 83 27 0.0 2.0 0.00 0.01 0.00 89 1003.6
20190819110452 83 301 0.0 2.0 0.00 0.01 0.00 89 1003.5
20190819110409 83 38 0.0 2.0 0.00 0.01 0.00 89 1003.5
20190819105952 83 251 1.0 3.0 0.00 0.01 0.00 89 1003.5
20190819105910 83 230 1.0 3.0 0.00 0.01 0.00 89 1003.5
20190819105452 83 257 1.0 3.0 0.00 0.01 0.00 88 1003.5
20190819105410 83 258 1.0 3.0 0.00 0.01 0.00 88 1003.5
20190819104952 83 166 1.0 1.0 0.00 0.01 0.00 89 1003.6
20190819104451 83 227 0.0 1.0 0.00 0.02 0.00 89 1003.6
20190819104409 84 300 0.0 4.0 0.00 0.02 0.00 89 1003.5
20190819103409 83 55 0.0 3.0 0.00 0.02 0.00 89 1003.4
20190819102909 84 315 1.0 3.0 0.00 0.03 0.00 89 1003.2
20190819102452 84 17 1.0 3.0 0.00 0.03 0.00 88 1003.3
20190819101952 84 49 1.0 3.0 0.00 0.03 0.00 88 1003.3
20190819101909 84 320 1.0 3.0 0.00 0.03 0.00 88 1003.4
20190819101452 84 40 1.0 2.0 0.00 0.03 0.00 88 1003.5
20190819101409 84 80 1.0 2.0 0.00 0.03 0.00 88 1003.4
20190819100952 84 240 1.0 2.0 0.00 0.05 0.00 88 1003.2
20190819100451 84 284 0.0 3.0 0.00 0.05 0.00 88 1003.1
20190819100409 84 66 0.0 3.0 0.00 0.05 0.00 88 1003.0
20190819095952 84 328 1.0 3.0 0.00 0.05 0.00 87 1003.0
20190819095909 84 360 1.0 3.0 0.00 0.06 0.00 88 1003.0
20190819095452 84 318 1.0 3.0 0.00 0.06 0.00 87 1002.9
20190819095409 84 258 1.0 3.0 0.00 0.06 0.00 87 1002.8
20190819094951 84 145 1.0 3.0 0.00 0.06 0.00 87 1002.6
20190819094909 84 328 1.0 3.0 0.00 0.06 0.00 88 1002.6
20190819094451 84 267 1.0 3.0 0.00 0.06 0.00 88 1002.6
20190819094409 84 358 1.0 3.0 0.00 0.06 0.00 88 1002.6
20190819093951 84 259 1.0 3.0 0.00 0.06 0.00 88 1002.8
20190819093910 84 105 1.0 3.0 0.00 0.06 0.00 88 1002.8
20190819093613 84 314 1.0 2.0 0.00 0.07 0.00 88 1002.9
20190819093452 84 314 1.0 2.0 0.00 0.07 0.00 88 1002.9
20190819093409 84 67 1.0 2.0 0.00 0.07 0.00 88 1002.8
20190819092951 85 10 1.0 2.0 0.00 0.07 0.00 87 1002.7
20190819092909 85 331 1.0 3.0 0.00 0.07 0.00 86 1002.7
20190819092451 85 222 0.0 3.0 0.00 0.09 0.00 87 1002.7
20190819091951 85 251 1.0 3.0 0.00 0.09 0.00 87 1002.6
20190819091909 85 184 1.0 3.0 0.00 0.09 0.00 87 1002.5
20190819091451 85 360 1.0 3.0 0.00 0.09 0.00 87 1002.5
20190819091408 85 360 1.0 3.0 0.00 0.09 0.00 86 1002.5
20190819090951 85 106 1.0 4.0 0.00 0.10 0.00 85 1002.5
20190819090909 85 64 2.0 4.0 0.00 0.10 0.00 85 1002.5
20190819090451 86 360 1.0 4.0 0.00 0.10 0.00 86 1002.5
20190819090408 86 323 1.0 4.0 0.00 0.11 0.00 85 1002.5
20190819085951 86 248 1.0 3.0 0.00 0.11 0.00 85 1002.4
20190819085908 86 239 1.0 3.0 0.00 0.11 0.00 85 1002.5
20190819085451 86 189 1.0 3.0 0.00 0.13 0.00 84 1002.4
20190819085408 86 202 1.0 4.0 0.00 0.13 0.00 84 1002.4
20190819084951 86 240 1.0 4.0 0.00 0.13 0.00 85 1002.3
20190819084908 86 314 2.0 4.0 0.00 0.14 0.00 85 1002.3
20190819084408 87 262 2.0 4.0 0.00 0.14 0.00 85 1002.3
20190819083908 87 240 2.0 6.0 0.00 0.15 0.00 83 1002.3
20190819083408 87 264 1.0 6.0 0.00 0.16 0.00 83 1002.4
20190819082908 88 2 1.0 3.0 0.00 0.18 0.00 84 1002.4
20190819082451 88 360 1.0 3.0 0.00 0.18 0.00 84 1002.3
20190819082408 88 28 0.0 3.0 0.00 0.19 0.00 85 1002.3
20190819081951 88 307 1.0 3.0 0.00 0.19 0.00 84 1002.3
20190819081908 88 23 1.0 3.0 0.00 0.19 0.00 83 1002.3
20190819081451 88 320 1.0 3.0 0.00 0.19 0.00 84 1002.2
20190819081408 88 347 1.0 3.0 0.00 0.19 0.00 83 1002.2
20190819080951 88 7 1.0 3.0 0.00 0.19 0.00 84 1002.2
20190819080909 88 273 1.0 3.0 0.00 0.19 0.00 85 1002.3
20190819080451 88 306 1.0 2.0 0.00 0.19 0.00 83 1002.3
20190819080409 88 281 1.0 3.0 0.00 0.20 0.00 83 1002.3
20190819075951 89 334 1.0 3.0 0.00 0.20 0.00 81 1002.3
20190819075908 89 50 1.0 3.0 0.00 0.20 0.00 82 1002.3
20190819075451 89 27 1.0 3.0 0.00 0.20 0.00 82 1002.3
20190819075408 89 12 1.0 3.0 0.00 0.20 0.00 81 1002.3
20190819074951 89 225 1.0 3.0 0.00 0.20 0.00 83 1002.5
20190819074908 89 257 1.0 3.0 0.00 0.20 0.00 83 1002.4
20190819074451 89 7 1.0 3.0 0.00 0.22 0.00 83 1002.5
20190819074408 89 312 1.0 3.0 0.00 0.22 0.00 82 1002.5
20190819073951 89 146 0.0 4.0 0.00 0.26 0.00 83 1002.5
20190819073908 89 319 0.0 4.0 0.00 0.27 0.00 82 1002.5
20190819073451 88 85 1.0 4.0 0.00 0.35 0.00 84 1002.4
20190819073408 88 343 2.0 4.0 0.00 0.37 0.00 83 1002.5
20190819072951 88 209 1.0 3.0 0.00 0.41 0.00 83 1002.5
20190819072908 88 288 1.0 3.0 0.00 0.42 0.00 83 1002.5
20190819072724 88 103 1.0 2.0 0.00 0.44 0.00 85 1002.5
20190819072625 88 314 1.0 3.0 0.00 0.44 0.00 84 1002.4
20190819072451 88 103 1.0 2.0 0.00 0.44 0.00 85 1002.5
20190819072408 88 314 1.0 3.0 0.00 0.44 0.00 84 1002.4
20190819071951 87 157 0.0 3.0 0.00 0.59 0.00 86 1002.5
20190819071909 87 305 0.0 3.0 0.00 0.61 0.00 87 1002.5
20190819071451 87 344 1.0 3.0 0.00 0.61 0.00 84 1002.6
20190819071408 87 219 1.0 3.0 0.00 0.61 0.00 84 1002.6
20190819070951 87 141 1.0 3.0 0.00 0.61 0.00 86 1002.6
20190819070908 87 308 1.0 3.0 0.00 0.61 0.00 87 1002.6
20190819070451 87 239 1.0 3.0 0.00 0.61 0.00 85 1002.7
20190819070408 87 297 1.0 3.0 0.00 0.61 0.00 84 1002.7
20190819065951 87 269 1.0 3.0 0.00 0.61 0.00 85 1002.7
20190819065908 87 322 0.0 3.0 0.00 0.61 0.00 86 1002.7
20190819065450 87 345 1.0 3.0 0.00 0.61 0.00 86 1002.8
20190819065408 87 328 1.0 2.0 0.00 0.61 0.00 86 1002.8
20190819064951 87 108 1.0 3.0 0.00 0.61 0.00 85 1002.8
20190819064908 87 88 1.0 3.0 0.00 0.61 0.00 85 1002.9
20190819064450 87 272 1.0 3.0 0.00 0.61 0.00 86 1002.8
20190819064408 87 142 1.0 3.0 0.00 0.61 0.00 87 1002.9
20190819063950 86 281 1.0 3.0 0.00 0.61 0.00 88 1003.0
20190819063908 86 264 1.0 3.0 0.00 0.61 0.00 88 1003.0
20190819063450 86 28 1.0 4.0 0.00 0.61 0.00 87 1003.0
20190819063408 86 38 1.0 4.0 0.00 0.61 0.00 87 1003.0
20190819062951 86 42 2.0 4.0 0.00 0.61 0.00 87 1002.9
20190819062908 86 14 2.0 4.0 0.00 0.61 0.00 86 1003.0
20190819062450 86 42 1.0 4.0 0.00 0.61 0.00 84 1003.0
20190819061950 87 36 1.0 4.0 0.00 0.61 0.00 84 1003.1
20190819061908 88 14 1.0 4.0 0.00 0.61 0.00 83 1003.1
20190819061450 88 252 1.0 6.0 0.00 0.61 0.00 84 1003.0
20190819061408 88 246 1.0 6.0 0.00 0.61 0.00 84 1003.1
20190819060950 88 233 1.0 6.0 0.00 0.61 0.00 84 1003.1
20190819060908 88 170 2.0 6.0 0.00 0.61 0.00 84 1003.2
20190819060450 88 105 1.0 4.0 0.00 0.61 0.00 84 1003.2
20190819060407 88 261 1.0 4.0 0.00 0.61 0.00 83 1003.2
20190819055950 88 49 1.0 4.0 0.00 0.61 0.00 83 1003.1
20190819055908 88 14 1.0 4.0 0.00 0.61 0.00 83 1003.1
20190819055450 88 71 2.0 4.0 0.00 0.61 0.00 84 1003.1
20190819055408 88 2 2.0 4.0 0.00 0.61 0.00 84 1003.1
20190819054951 87 58 1.0 5.0 0.00 0.61 0.00 84 1003.1
20190819054908 87 15 1.0 6.0 0.00 0.61 0.00 84 1003.1
20190819054450 88 318 1.0 6.0 0.00 0.61 0.00 82 1003.1
20190819054408 88 54 2.0 6.0 0.00 0.61 0.00 82 1003.1
20190819053950 88 87 3.0 6.0 0.00 0.61 0.00 82 1003.1
20190819053908 88 46 2.0 5.0 0.00 0.61 0.00 83 1003.1
20190819053450 88 345 3.0 5.0 0.00 0.61 0.00 83 1003.2
20190819053407 88 11 2.0 5.0 0.00 0.61 0.00 82 1003.2
20190819052950 88 360 1.0 6.0 0.00 0.61 0.00 83 1003.4
20190819052907 88 98 1.0 6.0 0.00 0.61 0.00 82 1003.5
20190819052450 89 296 2.0 6.0 0.00 0.61 0.00 82 1003.5
20190819052407 89 4 2.0 6.0 0.00 0.61 0.00 82 1003.5
20190819051950 89 216 1.0 3.0 0.00 0.61 0.00 84 1003.6
20190819051907 89 25 1.0 3.0 0.00 0.61 0.00 84 1003.6
20190819051450 87 44 1.0 3.0 0.00 0.61 0.00 83 1003.7
20190819051407 87 102 1.0 3.0 0.00 0.61 0.00 87 1003.8
20190819050950 86 224 1.0 3.0 0.00 0.61 0.00 86 1003.7
20190819050907 86 273 1.0 4.0 0.00 0.61 0.00 86 1003.7
20190819050450 85 302 2.0 5.0 0.00 0.61 0.00 88 1003.8
20190819045950 84 326 2.0 5.0 0.00 0.61 0.00 88 1003.8
20190819045907 84 255 2.0 5.0 0.00 0.61 0.00 87 1003.8